• Em Portugal
  • Lista de países
  • Para 7 dias
  • Temperatura da água
  • Mapas de satélite
  • Mapa do tempo
  • Widgets de tempo
  • user-avatar
    Iniciar Sessão

    Previsão horária em Czosnowo

    Hoje, 19 Outubro, Sexta-feira

    Tempo Temperatura Precipitação Vento Pressão Humidade
    00:00 +10°C° 0 mm 2 m/s 753 mmHg 94%
    01:00 +10°C° 0 mm 2 m/s 753 mmHg 96%
    02:00 +10°C° 0 mm 2 m/s 753 mmHg 95%
    03:00 +10°C° 0 mm 2 m/s 753 mmHg 95%
    04:00 +9°C° 0 mm 2 m/s 753 mmHg 94%
    05:00 +9°C° 0 mm 2 m/s 754 mmHg 92%
    06:00 +9°C° 0 mm 2 m/s 754 mmHg 90%
    07:00 +9°C° 0 mm 2 m/s 754 mmHg 89%
    08:00 +10°C° 0 mm 2 m/s 754 mmHg 78%
    09:00 +13°C° 0 mm 2 m/s 755 mmHg 67%
    10:00 +14°C° 0 mm 2 m/s 755 mmHg 57%
    11:00 +15°C° 0 mm 2 m/s 755 mmHg 52%
    12:00 +15°C° 0 mm 2 m/s 755 mmHg 48%
    13:00 +16°C° 0 mm 2 m/s 755 mmHg 44%
    14:00 +15°C° 0 mm 2 m/s 755 mmHg 46%
    15:00 +15°C° 0 mm 1 m/s 755 mmHg 49%
    16:00 +14°C° 0 mm 1 m/s 755 mmHg 51%
    17:00 +13°C° 0 mm 1 m/s 755 mmHg 55%
    18:00 +12°C° 0 mm 1 m/s 755 mmHg 59%
    19:00 +10°C° 0 mm 1 m/s 755 mmHg 63%
    20:00 +10°C° 0 mm 1 m/s 755 mmHg 65%
    21:00 +9°C° 0 mm 1 m/s 755 mmHg 67%
    22:00 +9°C° 0 mm 1 m/s 755 mmHg 69%
    23:00 +9°C° 0 mm 1 m/s 755 mmHg 70%

    Amanhã, 20 Outubro, Sábado

    Tempo Temperatura Precipitação Vento Pressão Humidade
    00:00 +8°C° 0 mm 1 m/s 755 mmHg 71%
    01:00 +8°C° 0 mm 1 m/s 755 mmHg 73%
    02:00 +8°C° 0 mm 1 m/s 755 mmHg 74%
    03:00 +8°C° 0 mm 1 m/s 755 mmHg 75%
    04:00 +8°C° 0 mm 1 m/s 755 mmHg 76%
    05:00 +8°C° 0 mm 1 m/s 756 mmHg 79%
    06:00 +7°C° 0 mm 2 m/s 756 mmHg 82%
    07:00 +6°C° 0 mm 2 m/s 756 mmHg 85%
    08:00 +8°C° 0 mm 2 m/s 756 mmHg 80%
    09:00 +9°C° 0 mm 3 m/s 756 mmHg 74%
    10:00 +11°C° 0 mm 3 m/s 757 mmHg 69%
    11:00 +11°C° 0 mm 4 m/s 757 mmHg 66%
    12:00 +11°C° 0 mm 4 m/s 756 mmHg 62%
    13:00 +12°C° 0 mm 4 m/s 756 mmHg 59%
    14:00 +11°C° 0 mm 4 m/s 756 mmHg 62%
    15:00 +11°C° 0 mm 4 m/s 756 mmHg 64%
    16:00 +10°C° 0 mm 4 m/s 756 mmHg 67%
    17:00 +10°C° 0.1 mm 4 m/s 756 mmHg 71%
    18:00 +10°C° 0.1 mm 4 m/s 756 mmHg 74%
    19:00 +8°C° 0.1 mm 4 m/s 756 mmHg 78%
    20:00 +8°C° 0 mm 4 m/s 756 mmHg 81%
    21:00 +8°C° 0 mm 3 m/s 756 mmHg 84%
    22:00 +8°C° 0 mm 3 m/s 756 mmHg 87%
    23:00 +8°C° 0 mm 3 m/s 756 mmHg 89%

    Depois de amanhã, 21 Outubro, Domingo

    Tempo Temperatura Precipitação Vento Pressão Humidade
    00:00 +7°C° 0 mm 3 m/s 756 mmHg 90%
    01:00 +7°C° 0 mm 3 m/s 756 mmHg 91%
    02:00 +7°C° 0 mm 3 m/s 756 mmHg 92%
    03:00 +7°C° 0 mm 2 m/s 756 mmHg 93%
    04:00 +6°C° 0 mm 2 m/s 756 mmHg 93%
    05:00 +6°C° 0 mm 2 m/s 756 mmHg 94%
    06:00 +6°C° 0 mm 2 m/s 756 mmHg 94%
    07:00 +6°C° 0 mm 2 m/s 756 mmHg 94%
    08:00 +8°C° 0 mm 2 m/s 756 mmHg 86%
    09:00 +9°C° 0 mm 2 m/s 756 mmHg 79%
    10:00 +11°C° 0 mm 3 m/s 756 mmHg 71%
    11:00 +13°C° 0 mm 2 m/s 756 mmHg 66%
    12:00 +13°C° 0 mm 2 m/s 756 mmHg 62%
    13:00 +14°C° 0 mm 2 m/s 756 mmHg 57%
    14:00 +14°C° 0 mm 2 m/s 756 mmHg 60%
    15:00 +13°C° 0 mm 1 m/s 756 mmHg 62%
    16:00 +13°C° 0 mm 1 m/s 756 mmHg 65%
    17:00 +11°C° 0 mm 1 m/s 756 mmHg 70%
    18:00 +10°C° 0 mm 1 m/s 756 mmHg 75%
    19:00 +9°C° 0 mm 1 m/s 756 mmHg 80%
    20:00 +9°C° 0 mm 1 m/s 756 mmHg 82%
    21:00 +9°C° 0 mm 1 m/s 756 mmHg 84%
    22:00 +8°C° 0 mm 1 m/s 755 mmHg 87%
    23:00 +8°C° 0 mm 1 m/s 755 mmHg 88%

    22 Outubro, Segunda-feira

    Tempo Temperatura Precipitação Vento Pressão Humidade
    00:00 +7°C° 0 mm 2 m/s 755 mmHg 89%
    01:00 +7°C° 0 mm 2 m/s 755 mmHg 91%
    02:00 +7°C° 0 mm 2 m/s 755 mmHg 91%
    03:00 +7°C° 0 mm 3 m/s 754 mmHg 92%
    04:00 +7°C° 0 mm 3 m/s 754 mmHg 92%
    05:00 +7°C° 0 mm 3 m/s 754 mmHg 92%
    06:00 +7°C° 0 mm 3 m/s 754 mmHg 92%
    07:00 +7°C° 0 mm 3 m/s 753 mmHg 92%
    08:00 +7°C° 0.1 mm 4 m/s 753 mmHg 90%
    09:00 +7°C° 0.1 mm 4 m/s 753 mmHg 88%
    10:00 +8°C° 0.1 mm 4 m/s 753 mmHg 86%
    11:00 +8°C° 0.3 mm 4 m/s 753 mmHg 85%
    12:00 +8°C° 0.3 mm 4 m/s 753 mmHg 85%
    13:00 +8°C° 0.3 mm 4 m/s 753 mmHg 85%
    14:00 +8°C° 0.4 mm 4 m/s 753 mmHg 81%
    15:00 +9°C° 0.4 mm 3 m/s 753 mmHg 77%
    16:00 +9°C° 0.4 mm 3 m/s 753 mmHg 74%
    17:00 +8°C° 0.1 mm 3 m/s 754 mmHg 75%
    18:00 +8°C° 0.1 mm 3 m/s 754 mmHg 76%
    19:00 +7°C° 0.1 mm 3 m/s 754 mmHg 78%
    20:00 +7°C° 0 mm 3 m/s 754 mmHg 78%
    21:00 +7°C° 0 mm 3 m/s 754 mmHg 79%
    22:00 +5°C° 0 mm 3 m/s 754 mmHg 79%
    23:00 +5°C° 0 mm 3 m/s 754 mmHg 80%

    23 Outubro, Terça-feira

    Tempo Temperatura Precipitação Vento Pressão Humidade
    00:00 +5°C° 0 mm 3 m/s 754 mmHg 82%
    01:00 +5°C° 0 mm 2 m/s 753 mmHg 83%
    02:00 +5°C° 0 mm 2 m/s 753 mmHg 85%
    03:00 +4°C° 0 mm 3 m/s 753 mmHg 86%
    04:00 +4°C° 0 mm 3 m/s 752 mmHg 87%
    05:00 +4°C° 0 mm 3 m/s 752 mmHg 87%
    06:00 +4°C° 0 mm 3 m/s 751 mmHg 87%
    07:00 +4°C° 0 mm 4 m/s 751 mmHg 87%
    08:00 +5°C° 0 mm 5 m/s 750 mmHg 83%
    09:00 +5°C° 0 mm 6 m/s 750 mmHg 78%
    10:00 +6°C° 0 mm 7 m/s 749 mmHg 74%
    11:00 +6°C° 0.6 mm 7 m/s 749 mmHg 76%
    12:00 +6°C° 0.6 mm 7 m/s 748 mmHg 78%
    13:00 +6°C° 0.6 mm 7 m/s 747 mmHg 80%
    14:00 +6°C° 0.3 mm 7 m/s 747 mmHg 80%
    15:00 +6°C° 0.3 mm 7 m/s 746 mmHg 79%
    16:00 +8°C° 0.3 mm 6 m/s 746 mmHg 79%
    17:00 +7°C° 0.1 mm 5 m/s 746 mmHg 77%
    18:00 +6°C° 0.1 mm 5 m/s 746 mmHg 76%
    19:00 +6°C° 0.1 mm 4 m/s 746 mmHg 74%
    20:00 +6°C° 0 mm 4 m/s 745 mmHg 76%
    21:00 +5°C° 0 mm 4 m/s 745 mmHg 77%
    22:00 +5°C° 0 mm 3 m/s 745 mmHg 79%
    23:00 +6°C° 0.6 mm 4 m/s 744 mmHg 82%

    24 Outubro, Quarta-feira

    Tempo Temperatura Precipitação Vento Pressão Humidade
    00:00 +7°C° 0.6 mm 5 m/s 743 mmHg 86%
    01:00 +7°C° 0.6 mm 6 m/s 741 mmHg 89%
    02:00 +8°C° 0.9 mm 7 m/s 740 mmHg 89%
    03:00 +9°C° 0.9 mm 8 m/s 739 mmHg 88%
    04:00 +10°C° 0.9 mm 8 m/s 737 mmHg 88%
    05:00 +10°C° 0.2 mm 9 m/s 737 mmHg 86%
    06:00 +11°C° 0.2 mm 9 m/s 736 mmHg 84%
    07:00 +11°C° 0.2 mm 9 m/s 735 mmHg 82%
    08:00 +11°C° 0.3 mm 9 m/s 735 mmHg 77%
    09:00 +11°C° 0.3 mm 10 m/s 735 mmHg 73%
    10:00 +11°C° 0.3 mm 10 m/s 735 mmHg 68%
    11:00 +11°C° 0.1 mm 11 m/s 736 mmHg 62%
    12:00 +11°C° 0.1 mm 11 m/s 736 mmHg 55%
    13:00 +11°C° 0.1 mm 11 m/s 737 mmHg 48%
    14:00 +9°C° 0 mm 11 m/s 737 mmHg 48%
    15:00 +9°C° 0 mm 10 m/s 738 mmHg 48%
    16:00 +8°C° 0 mm 10 m/s 739 mmHg 48%
    17:00 +7°C° 0 mm 9 m/s 740 mmHg 51%
    18:00 +7°C° 0 mm 8 m/s 741 mmHg 54%
    19:00 +6°C° 0 mm 8 m/s 742 mmHg 56%
    20:00 +6°C° 0 mm 7 m/s 743 mmHg 57%
    21:00 +5°C° 0 mm 7 m/s 744 mmHg 57%
    22:00 +5°C° 0 mm 6 m/s 745 mmHg 58%
    23:00 +5°C° 0 mm 6 m/s 746 mmHg 58%
    Mostrar mais